sat.trackr.live / text

‹ back to catalog

COSMOS 2544 (759)

NORAD 44850 · 2019-088A

PAYLOAD ACTIVE UNKNOWN

§ Identity

Operator
Country
CIS
Launch date
2019-12-11
Launch site
PLMSC
Launch vehicle
Mass (kg)
RCS (m²)

Purposes: nav

External: N2YO · Heavens-Above · Gunter

§ Orbital elements

Epoch: 2026-05-25T00:51:09.320256Z

Period
675.73 min
Inclination
65.5540°
Eccentricity
0.0013925
Mean motion
2.13101726 rev/d
Perigee alt
19,094.4 km
Apogee alt
19,165.4 km
Semi-major
25,508.0 km
B*
0.0000e+0
RAAN
74.5027°
Arg perigee
261.2351°
Mean anomaly
98.5977°
Rev number
5,022

§ Raw data

COSMOS 2544 (759)1 44850U 19088A   26145.03552454 -.00000038  00000+0  00000+0 0  99932 44850  65.5540  74.5027 0013925 261.2351  98.5977  2.13101726 50220

JSON: /api/v1/satellites/44850 · /tle

For live sub-satellite position, see the globe view (requires WebGL).

§ Visibility from observer

Set your observer location to see the next 7 days of passes ≥ 10°. The values pass through the URL so the page stays shareable.

No JS? Fill the form by hand. The geolocation button needs JavaScript.